IZ3TCG-13 Weather Reports


Display with metric or nautical units.
time (UTC)temp
F
wind
direction
speed
MPH
gust
MPH
rain 1hr
in
rain 24hr
in
rain mn
in
humidity
%
barometer
mb
20260510075603 66 28 1.0 6.0 0.00 0.00 0.00 83 1010.3
20260510075414 66 31 2.0 6.0 0.00 0.00 0.00 83 1010.6
20260510074803 66 16 1.0 4.0 0.00 0.00 0.00 82 1010.4
20260510074403 66 24 2.0 4.0 0.00 0.00 0.00 83 1010.5
20260510074003 66 4 2.0 4.0 0.00 0.00 0.00 83 1010.5
20260510073603 66 1 3.0 4.0 0.00 0.00 0.00 82 1010.5
20260510073203 66 11 2.0 4.0 0.00 0.00 0.00 83 1010.4
20260510072803 65 10 2.0 4.0 0.00 0.00 0.00 83 1010.3
20260510072615 65 2 1.0 4.0 0.00 0.00 0.00 83 1010.5
20260510072214 65 357 2.0 4.0 0.00 0.00 0.00 84 1010.7
20260510071814 65 345 1.0 4.0 0.00 0.00 0.00 84 1010.6
20260510071413 65 360 2.0 4.0 0.00 0.00 0.00 84 1010.5
20260510071018 64 360 0.0 4.0 0.00 0.00 0.00 85 1010.5
20260510070403 64 352 2.0 4.0 0.00 0.00 0.00 84 1010.5
20260510070004 64 2 2.0 4.0 0.00 0.00 0.00 84 1010.6
20260510065603 64 355 0.0 2.0 0.00 0.00 0.00 85 1010.5
20260510065203 64 27 0.0 2.0 0.00 0.00 0.00 85 1010.4
20260510065014 64 28 1.0 2.0 0.00 0.00 0.00 84 1010.4
20260510064403 64 99 0.0 2.0 0.00 0.00 0.00 86 1010.7
20260510064003 63 95 0.0 2.0 0.00 0.00 0.00 87 1010.7
20260510063603 63 58 1.0 2.0 0.00 0.00 0.00 87 1010.9
20260510063203 62 38 1.0 2.0 0.00 0.00 0.00 88 1010.8
20260510062803 62 15 0.0 2.0 0.00 0.00 0.00 87 1011.0
20260510062403 62 7 1.0 2.0 0.00 0.00 0.00 87 1010.7
20260510062003 62 359 1.0 2.0 0.00 0.00 0.00 86 1010.6
20260510061603 62 354 0.0 2.0 0.00 0.00 0.00 86 1010.8
20260510061203 62 351 0.0 2.0 0.00 0.00 0.00 86 1010.8
20260510060803 62 337 0.0 2.0 0.00 0.00 0.00 86 1010.8
20260510060403 62 0 0.0 0.0 0.00 0.00 0.00 86 1010.7
20260510060217 62 0 0.0 0.0 0.00 0.00 0.00 86 1011.0
20260510055816 62 0 0.0 0.0 0.00 0.00 0.00 87 1010.9
20260510055416 61 360 0.0 2.0 0.00 0.00 0.00 87 1010.9
20260510054803 61 7 0.0 2.0 0.00 0.00 0.00 87 1010.6
20260510054403 60 9 0.0 2.0 0.00 0.00 0.00 88 1010.7
20260510054003 60 7 1.0 4.0 0.00 0.00 0.00 87 1010.7
20260510053603 60 16 0.0 4.0 0.00 0.00 0.00 88 1010.7
20260510053203 60 29 1.0 4.0 0.00 0.00 0.00 88 1010.5
20260510052803 60 21 1.0 4.0 0.00 0.00 0.00 88 1010.6
20260510052403 60 4 1.0 4.0 0.00 0.00 0.00 88 1010.6
20260510052003 60 7 2.0 2.0 0.00 0.00 0.00 88 1010.4
20260510051603 60 360 0.0 2.0 0.00 0.00 0.00 88 1010.4
20260510051203 60 345 0.0 4.0 0.00 0.00 0.00 88 1010.5
20260510050803 60 356 0.0 4.0 0.00 0.00 0.00 88 1010.4
20260510050403 60 1 1.0 4.0 0.00 0.00 0.00 88 1010.4
20260510050212 60 6 0.0 2.0 0.00 0.00 0.00 88 1010.5
20260510045603 59 21 1.0 4.0 0.00 0.00 0.00 88 1010.6
20260510045203 59 3 1.0 4.0 0.00 0.00 0.00 88 1010.3
20260510044803 59 360 1.0 4.0 0.00 0.00 0.00 87 1010.4
20260510044403 59 17 1.0 4.0 0.00 0.00 0.00 87 1010.6
20260510044003 59 23 1.0 4.0 0.00 0.00 0.00 87 1010.4
20260510043603 60 25 0.0 4.0 0.00 0.00 0.00 87 1010.7
20260510043203 59 23 2.0 4.0 0.00 0.00 0.00 86 1010.6
20260510042803 59 22 1.0 4.0 0.00 0.00 0.00 86 1010.8
20260510042403 59 24 1.0 2.0 0.00 0.00 0.00 87 1010.7
20260510042003 59 27 1.0 2.0 0.00 0.00 0.00 87 1010.3
20260510041603 59 28 1.0 2.0 0.00 0.00 0.00 87 1010.7
20260510041203 59 18 0.0 4.0 0.00 0.00 0.00 87 1010.5
20260510040803 59 9 0.0 6.0 0.00 0.00 0.00 86 1010.7
20260510040403 59 9 2.0 6.0 0.00 0.00 0.00 86 1010.7
20260510040003 59 5 2.0 6.0 0.00 0.00 0.00 86 1010.6
20260510035603 59 30 0.0 2.0 0.00 0.00 0.00 87 1010.9
20260510035203 59 14 0.0 4.0 0.00 0.00 0.00 86 1010.7
20260510034803 60 12 0.0 4.0 0.00 0.00 0.00 85 1010.9
20260510034403 60 20 2.0 7.0 0.00 0.00 0.00 85 1010.8
20260510034004 60 19 2.0 7.0 0.00 0.00 0.00 85 1011.1
20260510033603 60 12 3.0 7.0 0.00 0.00 0.00 85 1010.8
20260510033203 60 12 2.0 4.0 0.00 0.00 0.00 86 1010.9
20260510032803 59 2 2.0 4.0 0.00 0.00 0.00 87 1011.2
20260510032403 59 9 0.0 4.0 0.00 0.00 0.00 87 1011.0
20260510032003 59 12 0.0 4.0 0.00 0.00 0.00 88 1010.9
20260510031603 59 10 1.0 4.0 0.00 0.00 0.00 88 1010.9
20260510031416 59 4 1.0 4.0 0.00 0.00 0.00 89 1010.9
20260510030803 58 3 2.0 4.0 0.00 0.00 0.00 92 1010.8
20260510030403 57 17 1.0 4.0 0.00 0.00 0.00 95 1011.2
20260510030003 57 22 1.0 4.0 0.00 0.00 0.00 96 1011.2
20260510025603 56 0 0.0 0.0 0.00 0.00 0.00 97 1011.2
20260510025203 56 0 0.0 0.0 0.00 0.00 0.00 97 1011.2
20260510024803 56 0 0.0 0.0 0.00 0.00 0.00 97 1011.0
20260510024403 56 0 0.0 0.0 0.00 0.00 0.00 97 1011.3
20260510024216 56 0 0.0 0.0 0.00 0.00 0.00 97 1011.3
20260510023603 56 0 0.0 0.0 0.00 0.00 0.00 96 1011.2
20260510023203 56 0 0.0 0.0 0.00 0.00 0.00 96 1011.3
20260510023014 56 0 0.0 0.0 0.00 0.00 0.00 96 1011.3
20260510022403 57 0 0.0 0.0 0.00 0.00 0.00 95 1011.4
20260510022217 57 0 0.0 0.0 0.00 0.00 0.00 95 1011.3
20260510021603 57 0 0.0 0.0 0.00 0.00 0.00 95 1011.7
20260510021203 57 0 0.0 0.0 0.00 0.00 0.00 94 1011.6
20260510021016 57 0 0.0 0.0 0.00 0.00 0.00 94 1011.5
20260510020615 58 0 0.0 0.0 0.00 0.00 0.00 94 1011.4
20260510020004 58 0 0.0 0.0 0.00 0.00 0.00 94 1011.5
20260510015603 59 0 0.0 0.0 0.00 0.00 0.00 93 1011.5
20260510015203 59 0 0.0 0.0 0.00 0.00 0.00 93 1011.6
20260510015017 59 0 0.0 0.0 0.00 0.00 0.00 93 1011.5
20260510014403 59 360 0.0 2.0 0.00 0.00 0.00 92 1011.6
20260510014003 59 360 0.0 2.0 0.00 0.00 0.00 92 1011.5
20260510013603 59 360 0.0 2.0 0.00 0.00 0.00 92 1011.4
20260510013203 59 360 0.0 2.0 0.00 0.00 0.00 92 1011.5
20260510013014 59 360 0.0 2.0 0.00 0.00 0.00 92 1011.6
20260510012614 59 360 0.0 2.0 0.00 0.00 0.00 91 1011.6
20260510012213 59 22 0.0 2.0 0.00 0.00 0.00 91 1011.4
20260510011817 59 16 0.0 2.0 0.00 0.00 0.00 90 1011.7
20260510011417 60 12 0.0 2.0 0.00 0.00 0.00 90 1011.8
20260510010803 59 360 0.0 2.0 0.00 0.00 0.00 90 1011.7
20260510010403 59 360 0.0 2.0 0.00 0.00 0.00 89 1011.9
20260510010004 59 4 0.0 2.0 0.00 0.00 0.00 89 1011.8
20260510005603 59 5 0.0 2.0 0.00 0.00 0.00 89 1011.6
20260510005203 59 343 1.0 2.0 0.00 0.00 0.00 89 1011.8
20260510004803 59 337 0.0 2.0 0.00 0.00 0.00 89 1011.5
20260510004612 59 337 0.0 2.0 0.00 0.00 0.00 89 1011.7
20260510004003 58 0 0.0 0.0 0.00 0.00 0.00 90 1011.8
20260510003603 58 0 0.0 0.0 0.00 0.00 0.00 90 1012.0
20260510003203 58 0 0.0 0.0 0.00 0.00 0.00 91 1011.8
20260510002803 58 0 0.0 0.0 0.00 0.00 0.00 91 1012.1
20260510002403 57 0 0.0 0.0 0.00 0.00 0.00 91 1012.2
20260510002003 57 0 0.0 0.0 0.00 0.00 0.00 90 1011.9
20260510001603 58 0 0.0 0.0 0.00 0.00 0.00 90 1011.9
20260510001203 58 0 0.0 0.0 0.00 0.00 0.00 89 1011.9
20260510000803 58 0 0.0 0.0 0.00 0.00 0.00 88 1012.0
20260510000404 58 0 0.0 0.0 0.00 0.00 0.00 88 1012.1
20260510000004 58 0 0.0 0.0 0.00 0.00 0.00 88 1012.1
20260509235603 58 0 0.0 0.0 0.00 0.00 0.00 88 1012.0
20260509235203 59 0 0.0 0.0 0.00 0.00 0.00 88 1011.9
20260509234803 59 0 0.0 0.0 0.00 0.00 0.00 88 1012.2
20260509234613 59 0 0.0 0.0 0.00 0.00 0.00 87 1012.0
20260509234218 59 0 0.0 0.0 0.00 0.00 0.00 87 1012.2
20260509233817 59 0 0.0 0.0 0.00 0.00 0.00 87 1012.3
20260509233416 59 0 0.0 0.0 0.00 0.00 0.00 87 1012.3
20260509232803 58 0 0.0 0.0 0.00 0.00 0.00 87 1012.3
20260509232403 59 0 0.0 0.0 0.00 0.00 0.00 87 1012.4
20260509232003 59 0 0.0 0.0 0.00 0.00 0.00 87 1012.3
20260509231603 58 0 0.0 0.0 0.00 0.00 0.00 88 1012.1
20260509231203 58 0 0.0 0.0 0.00 0.00 0.00 88 1012.4
20260509231017 58 0 0.0 0.0 0.00 0.00 0.00 88 1012.4
20260509230403 58 0 0.0 0.0 0.00 0.00 0.00 87 1012.5
20260509230216 59 0 0.0 0.0 0.00 0.00 0.00 87 1012.3
20260509225603 59 0 0.0 0.0 0.00 0.00 0.00 85 1012.4
20260509225203 59 0 0.0 0.0 0.00 0.00 0.00 85 1012.2
20260509224803 60 0 0.0 0.0 0.00 0.00 0.00 85 1012.1
20260509224403 60 0 0.0 0.0 0.00 0.00 0.00 84 1012.3
20260509224213 60 0 0.0 0.0 0.00 0.00 0.00 83 1012.2
20260509223603 60 0 0.0 0.0 0.00 0.00 0.00 83 1012.3
20260509223203 61 0 0.0 0.0 0.00 0.00 0.00 81 1012.2
20260509223016 61 0 0.0 0.0 0.00 0.00 0.00 81 1012.4
20260509222403 61 0 0.0 0.0 0.00 0.00 0.00 80 1012.5
20260509222003 61 0 0.0 0.0 0.00 0.00 0.00 81 1012.3
20260509221603 61 0 0.0 0.0 0.00 0.00 0.00 81 1012.0
20260509221414 61 0 0.0 0.0 0.00 0.00 0.00 81 1012.4
20260509220803 61 0 0.0 0.0 0.00 0.00 0.00 81 1012.3
20260509220403 61 0 0.0 0.0 0.00 0.00 0.00 80 1012.3
20260509220007 61 0 0.0 0.0 0.00 0.00 0.00 81 1012.4
20260509215603 62 0 0.0 0.0 0.00 0.00 0.00 81 1012.3
20260509215416 62 0 0.0 0.0 0.00 0.00 0.00 81 1012.3
20260509215015 62 0 0.0 0.0 0.00 0.00 0.00 80 1012.2
20260509214403 62 0 0.0 0.0 0.00 0.00 0.00 80 1012.4
20260509214214 62 0 0.0 0.0 0.00 0.00 0.00 80 1012.2
20260509213603 62 0 0.0 0.0 0.00 0.00 0.00 79 1012.2
20260509213203 62 0 0.0 0.0 0.00 0.00 0.00 79 1012.3
20260509212803 62 0 0.0 0.0 0.00 0.00 0.00 79 1012.3
20260509212403 62 0 0.0 0.0 0.00 0.00 0.00 78 1012.3
20260509212003 62 0 0.0 0.0 0.00 0.00 0.00 79 1012.4
20260509211603 62 0 0.0 0.0 0.00 0.00 0.00 79 1012.6
20260509211203 63 22 0.0 2.0 0.00 0.00 0.00 78 1012.2
20260509210803 63 22 0.0 2.0 0.00 0.00 0.00 77 1012.3
20260509210403 63 22 0.0 2.0 0.00 0.00 0.00 77 1012.3
20260509210003 63 0 0.0 0.0 0.00 0.00 0.00 78 1012.3
20260509205603 64 341 0.0 4.0 0.00 0.00 0.00 76 1012.4
20260509205203 64 339 0.0 4.0 0.00 0.00 0.00 76 1012.0
20260509204804 64 334 0.0 4.0 0.00 0.00 0.00 76 1012.3
20260509204404 63 337 0.0 2.0 0.00 0.00 0.00 76 1012.1
20260509204003 63 0 0.0 0.0 0.00 0.00 0.00 77 1012.2
20260509203603 62 0 0.0 0.0 0.00 0.00 0.00 78 1012.0
20260509203203 62 0 0.0 0.0 0.00 0.00 0.00 77 1012.0
20260509202803 62 0 0.0 0.0 0.00 0.00 0.00 78 1012.1
20260509202403 62 0 0.0 0.0 0.00 0.00 0.00 79 1012.2
20260509202003 62 0 0.0 0.0 0.00 0.00 0.00 78 1011.9
20260509201816 62 0 0.0 0.0 0.00 0.00 0.00 79 1012.1
20260509201203 63 157 0.0 2.0 0.00 0.00 0.00 78 1012.0
20260509200803 63 157 0.0 2.0 0.00 0.00 0.00 78 1012.1
20260509200403 63 157 0.0 2.0 0.00 0.00 0.00 77 1011.9
20260509200213 63 0 0.0 0.0 0.00 0.00 0.00 77 1011.8
20260509195812 64 0 0.0 0.0 0.00 0.00 0.00 78 1011.9
20260509195417 64 0 0.0 0.0 0.00 0.00 0.00 77 1011.9
20260509194803 64 0 0.0 0.0 0.00 0.00 0.00 77 1011.8
20260509194616 64 0 0.0 0.0 0.00 0.00 0.00 78 1011.8
20260509194003 64 0 0.0 0.0 0.00 0.00 0.00 78 1011.6
20260509193603 64 0 0.0 0.0 0.00 0.00 0.00 77 1011.6
20260509193203 64 0 0.0 0.0 0.00 0.00 0.00 78 1011.7
20260509193013 64 0 0.0 0.0 0.00 0.00 0.00 78 1011.7
20260509192403 65 0 0.0 0.0 0.00 0.00 0.00 76 1011.6
20260509192003 65 0 0.0 0.0 0.00 0.00 0.00 76 1011.7
20260509191603 66 67 0.0 2.0 0.00 0.00 0.00 75 1011.5
20260509191203 66 82 0.0 2.0 0.00 0.00 0.00 73 1011.4
20260509190803 66 82 0.0 2.0 0.00 0.00 0.00 73 1011.7
20260509190403 66 90 0.0 2.0 0.00 0.00 0.00 73 1011.5
20260509190003 66 101 0.0 2.0 0.00 0.00 0.00 72 1011.3
20260509185603 67 95 0.0 2.0 0.00 0.00 0.00 72 1011.5
20260509185203 67 84 0.0 4.0 0.00 0.00 0.00 71 1011.3
20260509185017 67 85 0.0 4.0 0.00 0.00 0.00 70 1011.3
20260509184403 68 84 2.0 4.0 0.00 0.00 0.00 69 1011.2
20260509184003 69 87 2.0 4.0 0.00 0.00 0.00 68 1011.1
20260509183603 69 86 2.0 6.0 0.00 0.00 0.00 68 1011.2
20260509183203 69 88 3.0 6.0 0.00 0.00 0.00 67 1011.0
20260509182803 69 90 3.0 8.0 0.00 0.00 0.00 67 1011.2
20260509182403 69 90 4.0 8.0 0.00 0.00 0.00 67 1011.0
20260509182003 70 92 3.0 8.0 0.00 0.00 0.00 67 1011.0
20260509181603 70 93 2.0 6.0 0.00 0.00 0.00 67 1010.9
20260509181203 70 89 2.0 6.0 0.00 0.00 0.00 67 1010.8
20260509180803 71 87 2.0 6.0 0.00 0.00 0.00 67 1010.9
20260509180403 71 88 3.0 6.0 0.00 0.00 0.00 66 1011.1
20260509180003 71 89 2.0 6.0 0.00 0.00 0.00 66 1011.0
20260509175603 71 93 2.0 4.0 0.00 0.00 0.00 66 1010.9
20260509175203 71 87 3.0 4.0 0.00 0.00 0.00 66 1011.1
20260509174803 71 91 1.0 7.0 0.00 0.00 0.00 66 1011.0
20260509174403 72 82 2.0 7.0 0.00 0.00 0.00 65 1010.8
20260509174003 72 90 2.0 7.0 0.00 0.00 0.00 65 1010.8
20260509173603 72 94 4.0 8.0 0.00 0.00 0.00 65 1011.0
20260509173203 73 96 4.0 8.0 0.00 0.00 0.00 64 1011.0
20260509172803 73 94 3.0 6.0 0.00 0.00 0.00 63 1011.0
20260509172403 73 94 2.0 4.0 0.00 0.00 0.00 63 1010.9
20260509172003 73 93 3.0 6.0 0.00 0.00 0.00 63 1010.9
20260509171603 74 88 2.0 6.0 0.00 0.00 0.00 63 1010.8
20260509171417 74 90 2.0 6.0 0.00 0.00 0.00 63 1011.0
20260509170803 74 87 2.0 6.0 0.00 0.00 0.00 63 1010.9
20260509170403 74 107 1.0 7.0 0.00 0.00 0.00 63 1011.0
20260509170003 74 103 4.0 8.0 0.00 0.00 0.00 62 1010.8
20260509165814 74 103 3.0 8.0 0.00 0.00 0.00 63 1010.8
20260509165203 74 89 2.0 8.0 0.00 0.00 0.00 61 1011.1
20260509164803 74 82 3.0 9.0 0.00 0.00 0.00 61 1010.8
20260509164403 74 86 4.0 9.0 0.00 0.00 0.00 62 1010.8
20260509164003 74 87 2.0 9.0 0.00 0.00 0.00 62 1010.9
20260509163603 74 88 2.0 7.0 0.00 0.00 0.00 62 1011.0
20260509163416 74 83 4.0 7.0 0.00 0.00 0.00 61 1010.7
20260509162803 75 84 4.0 7.0 0.00 0.00 0.00 60 1011.0
20260509162614 75 84 2.0 7.0 0.00 0.00 0.00 61 1011.0
20260509162003 75 94 3.0 11.0 0.00 0.00 0.00 60 1010.9
20260509161603 75 92 4.0 11.0 0.00 0.00 0.00 59 1011.2
20260509161203 76 84 7.0 9.0 0.00 0.00 0.00 59 1011.0
20260509161017 76 83 4.0 9.0 0.00 0.00 0.00 59 1011.2
20260509160403 76 74 5.0 9.0 0.00 0.00 0.00 57 1011.1
20260509160004 78 78 3.0 6.0 0.00 0.00 0.00 55 1011.0
20260509155603 78 79 4.0 6.0 0.00 0.00 0.00 51 1010.8
20260509155203 78 89 0.0 4.0 0.00 0.00 0.00 53 1011.0
20260509154803 79 101 1.0 4.0 0.00 0.00 0.00 48 1011.1
20260509154403 80 135 2.0 2.0 0.00 0.00 0.00 47 1011.0
20260509154003 80 125 1.0 4.0 0.00 0.00 0.00 47 1010.9
20260509153603 78 91 1.0 8.0 0.00 0.00 0.00 46 1010.9
20260509153203 77 89 1.0 8.0 0.00 0.00 0.00 51 1011.0
20260509152803 78 107 2.0 7.0 0.00 0.00 0.00 49 1011.0
20260509152403 79 105 1.0 13.0 0.00 0.00 0.00 49 1011.0
20260509152003 79 88 1.0 13.0 0.00 0.00 0.00 49 1011.2
20260509151604 78 87 1.0 13.0 0.00 0.00 0.00 51 1011.2
20260509151204 78 97 0.0 8.0 0.00 0.00 0.00 50 1011.0
20260509150803 80 119 4.0 8.0 0.00 0.00 0.00 49 1011.1
20260509150403 81 154 1.0 6.0 0.00 0.00 0.00 50 1011.3
20260509150004 80 113 1.0 6.0 0.00 0.00 0.00 49 1011.1
20260509145603 80 108 2.0 6.0 0.00 0.00 0.00 50 1011.4
20260509145203 79 96 2.0 6.0 0.00 0.00 0.00 51 1011.3
20260509144403 79 100 1.0 9.0 0.00 0.00 0.00 52 1011.4
20260509144003 80 92 1.0 6.0 0.00 0.00 0.00 48 1011.3
20260509143603 80 97 2.0 6.0 0.00 0.00 0.00 51 1011.2
20260509143417 80 161 3.0 7.0 0.00 0.00 0.00 51 1011.1
20260509142803 80 201 1.0 7.0 0.00 0.00 0.00 49 1011.3
20260509142403 80 180 2.0 4.0 0.00 0.00 0.00 47 1011.6
20260509142215 80 175 2.0 4.0 0.00 0.00 0.00 47 1011.5
20260509141603 81 175 2.0 4.0 0.00 0.00 0.00 49 1011.3
20260509141203 81 196 2.0 4.0 0.00 0.00 0.00 47 1011.5
20260509140804 82 173 2.0 4.0 0.00 0.00 0.00 42 1011.7
20260509140403 81 155 0.0 4.0 0.00 0.00 0.00 43 1011.7
20260509140004 81 151 0.0 4.0 0.00 0.00 0.00 46 1011.7
20260509135603 81 132 2.0 4.0 0.00 0.00 0.00 46 1011.7
20260509135416 81 120 2.0 4.0 0.00 0.00 0.00 46 1011.5
20260509134803 79 112 2.0 4.0 0.00 0.00 0.00 51 1011.7
20260509134403 77 90 2.0 4.0 0.00 0.00 0.00 53 1011.7
20260509134003 78 100 2.0 4.0 0.00 0.00 0.00 52 1011.8
20260509133603 79 142 2.0 7.0 0.00 0.00 0.00 50 1011.8
20260509133203 81 183 2.0 7.0 0.00 0.00 0.00 48 1011.9
20260509132803 81 171 1.0 4.0 0.00 0.00 0.00 48 1011.9
20260509132403 77 123 1.0 6.0 0.00 0.00 0.00 51 1011.7
20260509132003 76 106 1.0 7.0 0.00 0.00 0.00 52 1011.9
20260509131815 76 100 0.0 7.0 0.00 0.00 0.00 54 1012.1
20260509131203 78 106 1.0 4.0 0.00 0.00 0.00 51 1011.8
20260509130803 80 125 1.0 4.0 0.00 0.00 0.00 53 1011.7
20260509130403 80 115 2.0 4.0 0.00 0.00 0.00 52 1012.0
20260509130004 79 91 2.0 4.0 0.00 0.00 0.00 52 1012.1
20260509125603 78 83 2.0 4.0 0.00 0.00 0.00 51 1012.0
20260509125203 77 88 2.0 4.0 0.00 0.00 0.00 55 1012.2
20260509124803 77 118 1.0 4.0 0.00 0.00 0.00 56 1012.0
20260509124403 79 136 2.0 6.0 0.00 0.00 0.00 53 1012.0
20260509124003 79 116 1.0 6.0 0.00 0.00 0.00 50 1011.8
20260509123814 81 103 2.0 6.0 0.00 0.00 0.00 51 1012.0
20260509123413 79 99 0.0 4.0 0.00 0.00 0.00 49 1012.0
20260509122803 79 106 1.0 4.0 0.00 0.00 0.00 51 1012.0
20260509122403 79 104 1.0 7.0 0.00 0.00 0.00 54 1012.0
20260509122216 79 96 1.0 7.0 0.00 0.00 0.00 52 1012.0
20260509121603 78 104 3.0 7.0 0.00 0.00 0.00 55 1012.2
20260509121203 79 140 2.0 4.0 0.00 0.00 0.00 51 1012.1
20260509120803 80 166 2.0 4.0 0.00 0.00 0.00 51 1012.2
20260509120403 80 121 1.0 7.0 0.00 0.00 0.00 55 1012.5
20260509120003 77 95 2.0 7.0 0.00 0.00 0.00 56 1012.2
20260509115603 77 92 2.0 7.0 0.00 0.00 0.00 58 1012.4
20260509115203 78 126 1.0 4.0 0.00 0.00 0.00 53 1012.5
20260509114803 79 111 1.0 4.0 0.00 0.00 0.00 52 1012.3
20260509114403 79 102 2.0 4.0 0.00 0.00 0.00 55 1012.4
20260509114003 79 88 1.0 4.0 0.00 0.00 0.00 52 1012.3
20260509113814 79 80 1.0 6.0 0.00 0.00 0.00 54 1012.6
20260509113414 78 73 2.0 6.0 0.00 0.00 0.00 52 1012.6
20260509112803 79 142 2.0 6.0 0.00 0.00 0.00 50 1012.5
20260509112403 79 224 0.0 7.0 0.00 0.00 0.00 51 1012.7
20260509112003 78 248 1.0 7.0 0.00 0.00 0.00 52 1012.5
20260509111816 77 247 0.0 7.0 0.00 0.00 0.00 51 1012.7
20260509111203 78 168 3.0 6.0 0.00 0.00 0.00 52 1012.7
20260509110803 79 101 1.0 4.0 0.00 0.00 0.00 52 1012.6
20260509110403 77 72 0.0 4.0 0.00 0.00 0.00 54 1012.8
20260509110003 78 77 2.0 4.0 0.00 0.00 0.00 53 1012.6
20260509105603 76 106 2.0 4.0 0.00 0.00 0.00 56 1012.8
20260509105412 75 106 1.0 4.0 0.00 0.00 0.00 57 1013.0
20260509104803 75 137 2.0 4.0 0.00 0.00 0.00 58 1012.9
20260509104616 76 157 2.0 4.0 0.00 0.00 0.00 59 1013.0
20260509104004 78 206 1.0 4.0 0.00 0.00 0.00 53 1013.1
20260509103604 77 183 2.0 4.0 0.00 0.00 0.00 55 1013.0
20260509103203 76 159 2.0 4.0 0.00 0.00 0.00 55 1013.1
20260509102803 77 114 1.0 8.0 0.00 0.00 0.00 57 1013.1
20260509102403 76 137 1.0 8.0 0.00 0.00 0.00 57 1013.2
20260509102003 75 189 2.0 9.0 0.00 0.00 0.00 58 1013.1
20260509101817 76 237 3.0 9.0 0.00 0.00 0.00 60 1013.3
20260509101203 77 307 3.0 4.0 0.00 0.00 0.00 55 1013.2
20260509100803 76 284 1.0 6.0 0.00 0.00 0.00 55 1013.2
20260509100403 75 262 2.0 6.0 0.00 0.00 0.00 57 1013.3
20260509095604 76 155 1.0 4.0 0.00 0.00 0.00 55 1013.9
20260509095203 77 135 2.0 4.0 0.00 0.00 0.00 57 1013.9
20260509095013 77 164 0.0 4.0 0.00 0.00 0.00 58 1013.9
20260509094403 76 270 1.0 6.0 0.00 0.00 0.00 57 1014.1
20260509094004 76 260 1.0 6.0 0.00 0.00 0.00 58 1014.0
20260509093603 75 219 2.0 6.0 0.00 0.00 0.00 63 1014.0
20260509093203 75 163 2.0 6.0 0.00 0.00 0.00 60 1014.0
20260509092803 75 148 2.0 4.0 0.00 0.00 0.00 60 1014.1
20260509092614 75 160 2.0 4.0 0.00 0.00 0.00 61 1014.2
20260509092003 74 174 2.0 4.0 0.00 0.00 0.00 61 1014.2
20260509091603 75 176 2.0 4.0 0.00 0.00 0.00 62 1014.3
20260509091412 75 162 1.0 4.0 0.00 0.00 0.00 59 1014.4
20260509090803 76 208 2.0 4.0 0.00 0.00 0.00 60 1014.3
20260509090403 74 18 1.0 2.0 0.00 0.00 0.00 64 1014.2
20260509090216 74 79 2.0 2.0 0.00 0.00 0.00 62 1014.2
20260509085603 73 156 1.0 4.0 0.00 0.00 0.00 63 1014.5
20260509085203 73 212 2.0 4.0 0.00 0.00 0.00 65 1014.5
20260509085014 72 210 1.0 4.0 0.00 0.00 0.00 63 1014.4
20260509084403 74 176 2.0 4.0 0.00 0.00 0.00 64 1014.2
20260509084003 74 165 0.0 4.0 0.00 0.00 0.00 65 1014.4
20260509083604 73 186 0.0 2.0 0.00 0.00 0.00 65 1014.2
20260509083203 72 221 1.0 2.0 0.00 0.00 0.00 65 1014.3
20260509082803 74 240 1.0 2.0 0.00 0.00 0.00 63 1014.5
20260509082403 72 239 0.0 2.0 0.00 0.00 0.00 64 1014.4
20260509082003 71 249 0.0 2.0 0.00 0.00 0.00 67 1014.4
20260509081814 72 232 2.0 2.0 0.00 0.00 0.00 66 1014.3
20260509081203 72 142 1.0 2.0 0.00 0.00 0.00 67 1014.4
20260509080803 73 109 1.0 2.0 0.00 0.00 0.00 68 1014.3
20260509080403 72 146 2.0 2.0 0.00 0.00 0.00 70 1014.2
20260509080216 72 151 1.0 2.0 0.00 0.00 0.00 68 1014.2